Time,TemperatureF,DewpointF,PressureIn,WindDirection,WindDirectionDegrees,WindSpeedMPH,WindSpeedGustMPH,Humidity,HourlyPrecipIn,Conditions,Clouds,dailyrainin,SoftwareType,DateUTC
2013-04-10 00:04:00,26.2,6.8,25.07,South,182,6.0,9.6,43,0.00,,,-99.99,FreeWX 2.04,2013-04-10 06:04:00,
2013-04-10 00:09:00,26.1,6.6,25.07,SSE,161,6.0,6.9,43,0.00,,,-99.99,FreeWX 2.04,2013-04-10 06:09:00,
2013-04-10 00:14:00,25.9,6.4,25.07,SSE,164,5.0,8.3,43,0.00,,,-99.99,FreeWX 2.04,2013-04-10 06:14:00,
2013-04-10 00:19:00,25.7,6.8,25.07,SSE,168,6.0,8.7,44,0.00,,,-99.99,FreeWX 2.04,2013-04-10 06:19:00,
2013-04-10 00:24:00,25.5,7.2,25.07,SSE,166,6.0,8.3,45,0.00,,,-99.99,FreeWX 2.04,2013-04-10 06:24:00,
2013-04-10 00:35:00,25.5,7.7,25.07,SSE,156,6.0,7.4,46,0.00,,,-99.99,FreeWX 2.04,2013-04-10 06:35:00,
2013-04-10 00:40:00,25.5,7.7,25.07,SSE,153,6.0,9.6,46,0.00,,,-99.99,FreeWX 2.04,2013-04-10 06:40:00,
2013-04-10 00:45:00,25.5,6.3,25.07,SSE,156,7.0,10.1,43,0.00,,,-99.99,FreeWX 2.04,2013-04-10 06:45:00,
2013-04-10 00:50:00,25.3,5.5,25.07,South,170,7.0,10.1,42,0.00,,,-99.99,FreeWX 2.04,2013-04-10 06:50:00,
2013-04-10 00:55:00,25.0,4.1,25.10,South,178,8.0,13.0,40,0.00,,,-99.99,FreeWX 2.04,2013-04-10 06:55:00,
2013-04-10 01:00:00,24.6,2.7,25.10,South,175,9.0,12.1,38,0.00,,,-99.99,FreeWX 2.04,2013-04-10 07:00:00,
2013-04-10 01:05:00,24.8,2.3,25.10,South,170,8.0,13.0,37,0.00,,,-99.99,FreeWX 2.04,2013-04-10 07:05:00,
2013-04-10 01:10:00,24.8,2.3,25.10,SSE,160,7.0,9.2,37,0.00,,,-99.99,FreeWX 2.04,2013-04-10 07:10:00,
2013-04-10 01:15:00,24.8,1.8,25.10,SSE,154,8.0,11.2,36,0.00,,,-99.99,FreeWX 2.04,2013-04-10 07:15:00,
2013-04-10 01:20:00,24.8,1.8,25.10,SSE,156,8.0,10.5,36,0.00,,,-99.99,FreeWX 2.04,2013-04-10 07:20:00,
2013-04-10 01:25:00,24.6,2.1,25.10,SSE,152,7.0,9.2,37,0.00,,,-99.99,FreeWX 2.04,2013-04-10 07:25:00,
2013-04-10 01:30:00,24.6,0.9,25.10,SSE,153,6.0,10.1,35,0.00,,,-99.99,FreeWX 2.04,2013-04-10 07:30:00,
2013-04-10 01:35:00,24.6,1.6,25.10,SSE,164,6.0,7.8,36,0.00,,,-99.99,FreeWX 2.04,2013-04-10 07:35:00,
2013-04-10 01:40:00,24.4,1.4,25.10,South,173,5.0,6.9,36,0.00,,,-99.99,FreeWX 2.04,2013-04-10 07:40:00,
2013-04-10 01:45:00,24.3,1.8,25.10,South,180,4.0,5.8,37,0.00,,,-99.99,FreeWX 2.04,2013-04-10 07:45:00,
2013-04-10 01:50:00,24.1,2.1,25.10,South,180,4.0,5.4,38,0.00,,,-99.99,FreeWX 2.04,2013-04-10 07:50:00,
2013-04-10 01:55:00,24.3,1.8,25.10,South,186,4.0,7.8,37,0.00,,,-99.99,FreeWX 2.04,2013-04-10 07:55:00,
2013-04-10 02:00:00,24.4,1.9,25.10,SSW,193,5.0,6.7,37,0.00,,,-99.99,FreeWX 2.04,2013-04-10 08:00:00,
2013-04-10 02:05:00,24.4,1.9,25.10,SSW,198,5.0,6.7,37,0.00,,,-99.99,FreeWX 2.04,2013-04-10 08:05:00,
2013-04-10 02:10:00,24.3,1.8,25.10,SSW,211,4.0,5.8,37,0.00,,,-99.99,FreeWX 2.04,2013-04-10 08:10:00,
2013-04-10 02:15:00,24.4,1.9,25.10,SW,234,4.0,5.8,37,0.00,,,-99.99,FreeWX 2.04,2013-04-10 08:15:00,
2013-04-10 02:20:00,24.3,1.8,25.10,WSW,248,4.0,4.9,37,0.00,,,-99.99,FreeWX 2.04,2013-04-10 08:20:00,
2013-04-10 02:25:00,24.1,2.1,25.10,WSW,248,2.0,4.5,38,0.00,,,-99.99,FreeWX 2.04,2013-04-10 08:25:00,
2013-04-10 02:30:00,24.1,2.1,25.10,North,-999,0.0,2.7,38,0.00,,,-99.99,FreeWX 2.04,2013-04-10 08:30:00,
2013-04-10 02:35:00,24.1,2.1,25.10,WSW,247,1.0,3.6,38,0.00,,,-99.99,FreeWX 2.04,2013-04-10 08:35:00,
2013-04-10 02:40:00,24.3,2.3,25.10,WSW,248,2.0,3.6,38,0.00,,,-99.99,FreeWX 2.04,2013-04-10 08:40:00,
2013-04-10 02:45:00,24.4,2.5,25.10,WSW,248,2.0,3.6,38,0.00,,,-99.99,FreeWX 2.04,2013-04-10 08:45:00,
2013-04-10 02:50:00,24.4,1.9,25.10,WSW,249,2.0,4.9,37,0.00,,,-99.99,FreeWX 2.04,2013-04-10 08:50:00,
2013-04-10 02:55:00,24.4,1.9,25.10,WSW,254,2.0,5.8,37,0.00,,,-99.99,FreeWX 2.04,2013-04-10 08:55:00,
2013-04-10 03:00:00,24.3,1.8,25.10,WNW,282,4.0,6.3,37,0.00,,,-99.99,FreeWX 2.04,2013-04-10 09:00:00,
2013-04-10 03:05:00,24.3,1.8,25.10,NW,314,4.0,5.8,37,0.00,,,-99.99,FreeWX 2.04,2013-04-10 09:05:00,
2013-04-10 03:10:00,24.1,1.6,25.10,NW,322,3.0,4.5,37,0.00,,,-99.99,FreeWX 2.04,2013-04-10 09:10:00,
2013-04-10 03:15:00,23.9,0.9,25.10,NNW,346,4.0,6.7,36,0.00,,,-99.99,FreeWX 2.04,2013-04-10 09:15:00,
2013-04-10 03:20:00,23.9,1.4,25.10,North,4,5.0,6.9,37,0.00,,,-99.99,FreeWX 2.04,2013-04-10 09:20:00,
2013-04-10 03:25:00,23.9,0.9,25.10,North,352,5.0,6.3,36,0.00,,,-99.99,FreeWX 2.04,2013-04-10 09:25:00,
2013-04-10 03:30:00,23.7,0.7,25.10,North,354,4.0,5.8,36,0.00,,,-99.99,FreeWX 2.04,2013-04-10 09:30:00,
2013-04-10 03:35:00,23.7,0.7,25.10,North,9,4.0,6.7,36,0.00,,,-99.99,FreeWX 2.04,2013-04-10 09:35:00,
2013-04-10 03:40:00,23.7,0.7,25.10,NNE,17,3.0,4.5,36,0.00,,,-99.99,FreeWX 2.04,2013-04-10 09:40:00,
2013-04-10 03:45:00,23.5,0.5,25.10,NNE,17,2.0,3.6,36,0.00,,,-99.99,FreeWX 2.04,2013-04-10 09:45:00,
2013-04-10 03:50:00,23.5,1.2,25.10,NNE,17,2.0,4.5,37,0.00,,,-99.99,FreeWX 2.04,2013-04-10 09:50:00,
2013-04-10 03:55:00,23.4,1.6,25.10,NNE,18,2.0,5.8,38,0.00,,,-99.99,FreeWX 2.04,2013-04-10 09:55:00,
2013-04-10 04:00:00,23.4,1.6,25.10,NNE,19,4.0,5.4,38,0.00,,,-99.99,FreeWX 2.04,2013-04-10 10:00:00,
2013-04-10 04:05:00,23.4,1.6,25.10,NNE,20,4.0,5.4,38,0.00,,,-99.99,FreeWX 2.04,2013-04-10 10:05:00,
2013-04-10 04:10:00,23.4,1.6,25.10,NNE,20,4.0,5.4,38,0.00,,,-99.99,FreeWX 2.04,2013-04-10 10:10:00,
2013-04-10 04:15:00,23.4,1.6,25.10,NNE,20,4.0,5.4,38,0.00,,,-99.99,FreeWX 2.04,2013-04-10 10:15:00,
2013-04-10 04:20:00,23.4,2.1,25.10,NNE,20,2.0,3.6,39,0.00,,,-99.99,FreeWX 2.04,2013-04-10 10:20:00,
2013-04-10 04:25:00,23.4,2.7,25.10,NNE,20,1.0,3.6,40,0.00,,,-99.99,FreeWX 2.04,2013-04-10 10:25:00,
2013-04-10 04:30:00,23.4,2.7,25.10,North,-999,0.0,0.0,40,0.00,,,-99.99,FreeWX 2.04,2013-04-10 10:30:00,
2013-04-10 04:35:00,23.4,2.7,25.10,North,-999,0.0,3.6,40,0.00,,,-99.99,FreeWX 2.04,2013-04-10 10:35:00,
2013-04-10 04:40:00,23.4,3.2,25.10,NNE,20,1.0,3.6,41,0.00,,,-99.99,FreeWX 2.04,2013-04-10 10:40:00,
2013-04-10 04:45:00,23.4,2.7,25.10,North,-999,0.0,2.7,40,0.00,,,-99.99,FreeWX 2.04,2013-04-10 10:45:00,
2013-04-10 04:50:00,23.4,3.2,25.10,North,-999,0.0,0.0,41,0.00,,,-99.99,FreeWX 2.04,2013-04-10 10:50:00,
2013-04-10 04:55:00,23.4,3.2,25.10,North,-999,0.0,3.1,41,0.00,,,-99.99,FreeWX 2.04,2013-04-10 10:55:00,
2013-04-10 05:00:00,23.5,2.8,25.10,NNE,20,2.0,3.6,40,0.00,,,-99.99,FreeWX 2.04,2013-04-10 11:00:00,
2013-04-10 05:05:00,23.5,2.8,25.10,NNE,20,3.0,3.6,40,0.00,,,-99.99,FreeWX 2.04,2013-04-10 11:05:00,
2013-04-10 05:10:00,23.5,2.8,25.10,NNE,20,3.0,4.0,40,0.00,,,-99.99,FreeWX 2.04,2013-04-10 11:10:00,
2013-04-10 05:15:00,23.7,1.9,25.10,NNE,20,2.0,4.0,38,0.00,,,-99.99,FreeWX 2.04,2013-04-10 11:15:00,
2013-04-10 05:20:00,23.7,1.9,25.10,North,-999,0.0,0.0,38,0.00,,,-99.99,FreeWX 2.04,2013-04-10 11:20:00,
2013-04-10 05:25:00,23.7,1.9,25.10,North,-999,0.0,0.0,38,0.00,,,-99.99,FreeWX 2.04,2013-04-10 11:25:00,
2013-04-10 05:30:00,23.7,1.9,25.10,North,-999,0.0,3.1,38,0.00,,,-99.99,FreeWX 2.04,2013-04-10 11:30:00,
2013-04-10 05:35:00,23.9,1.9,25.10,NNE,20,1.0,4.0,38,0.00,,,-99.99,FreeWX 2.04,2013-04-10 11:35:00,
2013-04-10 05:40:00,23.9,1.4,25.10,NNE,20,1.0,3.1,37,0.00,,,-99.99,FreeWX 2.04,2013-04-10 11:40:00,
2013-04-10 05:45:00,23.9,1.4,25.10,North,-999,0.0,2.7,37,0.00,,,-99.99,FreeWX 2.04,2013-04-10 11:45:00,
2013-04-10 05:50:00,24.1,1.6,25.10,North,-999,0.0,3.1,37,0.00,,,-99.99,FreeWX 2.04,2013-04-10 11:50:00,
2013-04-10 05:55:00,24.1,1.6,25.10,North,-999,0.0,3.1,37,0.00,,,-99.99,FreeWX 2.04,2013-04-10 11:55:00,
2013-04-10 06:00:00,24.1,1.6,25.10,NNE,20,1.0,4.0,37,0.00,,,-99.99,FreeWX 2.04,2013-04-10 12:00:00,
2013-04-10 06:05:00,24.1,1.6,25.10,NNE,20,2.0,4.0,37,0.00,,,-99.99,FreeWX 2.04,2013-04-10 12:05:00,
2013-04-10 06:10:00,24.1,1.6,25.10,NNE,20,3.0,4.0,37,0.00,,,-99.99,FreeWX 2.04,2013-04-10 12:10:00,
2013-04-10 06:16:00,24.1,1.6,25.10,NNE,20,2.0,4.0,37,0.00,,,-99.99,FreeWX 2.04,2013-04-10 12:16:00,
2013-04-10 06:21:00,24.1,1.6,25.10,NNE,20,2.0,4.0,37,0.00,,,-99.99,FreeWX 2.04,2013-04-10 12:21:00,
2013-04-10 06:26:00,24.1,1.6,25.13,NNE,20,3.0,3.6,37,0.00,,,-99.99,FreeWX 2.04,2013-04-10 12:26:00,
2013-04-10 06:31:00,23.9,1.9,25.13,NNE,20,3.0,4.0,38,0.00,,,-99.99,FreeWX 2.04,2013-04-10 12:31:00,
2013-04-10 06:36:00,23.9,1.9,25.13,NNE,20,3.0,4.0,38,0.00,,,-99.99,FreeWX 2.04,2013-04-10 12:36:00,
2013-04-10 06:41:00,23.7,1.9,25.13,NNE,20,1.0,2.7,38,0.00,,,-99.99,FreeWX 2.04,2013-04-10 12:41:00,
2013-04-10 06:46:00,23.7,1.9,25.13,North,-999,0.0,0.0,38,0.00,,,-99.99,FreeWX 2.04,2013-04-10 12:46:00,
2013-04-10 06:51:00,23.9,1.9,25.13,North,-999,0.0,3.1,38,0.00,,,-99.99,FreeWX 2.04,2013-04-10 12:51:00,
2013-04-10 06:56:00,23.9,1.9,25.13,NNE,20,2.0,3.6,38,0.00,,,-99.99,FreeWX 2.04,2013-04-10 12:56:00,
2013-04-10 07:01:00,23.9,1.4,25.13,NNE,20,1.0,3.1,37,0.00,,,-99.99,FreeWX 2.04,2013-04-10 13:01:00,
2013-04-10 07:06:00,24.1,2.1,25.13,North,-999,0.0,2.7,38,0.00,,,-99.99,FreeWX 2.04,2013-04-10 13:06:00,
2013-04-10 07:11:00,24.1,2.7,25.13,North,-999,0.0,2.7,39,0.00,,,-99.99,FreeWX 2.04,2013-04-10 13:11:00,
2013-04-10 07:26:00,24.1,2.1,25.13,NNE,20,3.0,4.5,38,0.00,,,-99.99,FreeWX 2.04,2013-04-10 13:26:00,
2013-04-10 07:32:00,24.3,1.8,25.13,NNE,20,4.0,5.8,37,0.00,,,-99.99,FreeWX 2.04,2013-04-10 13:32:00,
2013-04-10 07:37:00,24.3,1.8,25.13,NNE,13,5.0,6.9,37,0.00,,,-99.99,FreeWX 2.04,2013-04-10 13:37:00,
2013-04-10 07:42:00,24.1,1.6,25.13,North,2,5.0,6.9,37,0.00,,,-99.99,FreeWX 2.04,2013-04-10 13:42:00,
2013-04-10 07:47:00,24.6,2.1,25.13,North,354,5.0,6.9,37,0.00,,,-99.99,FreeWX 2.04,2013-04-10 13:47:00,
2013-04-10 07:52:00,24.6,1.6,25.13,North,353,5.0,6.7,36,0.00,,,-99.99,FreeWX 2.04,2013-04-10 13:52:00,
2013-04-10 07:57:00,25.3,2.1,25.13,North,349,6.0,9.2,36,0.00,,,-99.99,FreeWX 2.04,2013-04-10 13:57:00,
2013-04-10 08:02:00,25.2,1.4,25.13,NNW,343,6.0,9.6,35,0.00,,,-99.99,FreeWX 2.04,2013-04-10 14:02:00,
2013-04-10 08:07:00,25.7,1.9,25.13,NNW,348,6.0,8.3,35,0.00,,,-99.99,FreeWX 2.04,2013-04-10 14:07:00,
2013-04-10 08:12:00,25.5,1.0,25.13,North,358,6.0,9.6,34,0.00,,,-99.99,FreeWX 2.04,2013-04-10 14:12:00,
2013-04-10 08:17:00,25.7,0.7,25.13,North,1,6.0,8.3,33,0.00,,,-99.99,FreeWX 2.04,2013-04-10 14:17:00,
2013-04-10 08:22:00,25.7,0.7,25.13,North,353,6.0,7.8,33,0.00,,,-99.99,FreeWX 2.04,2013-04-10 14:22:00,
2013-04-10 08:27:00,25.5,0.5,25.13,North,349,6.0,8.3,33,0.00,,,-99.99,FreeWX 2.04,2013-04-10 14:27:00,
2013-04-10 08:32:00,26.1,0.9,25.13,North,353,6.0,8.7,33,0.00,,,-99.99,FreeWX 2.04,2013-04-10 14:32:00,
2013-04-10 08:37:00,27.0,1.0,25.13,North,351,5.0,7.4,32,0.00,,,-99.99,FreeWX 2.04,2013-04-10 14:37:00,
2013-04-10 08:42:00,27.0,1.0,25.13,North,350,5.0,7.4,32,0.00,,,-99.99,FreeWX 2.04,2013-04-10 14:42:00,
2013-04-10 08:47:00,27.0,1.0,25.13,NNE,13,5.0,8.7,32,0.00,,,-99.99,FreeWX 2.04,2013-04-10 14:47:00,
2013-04-10 08:52:00,27.3,1.4,25.16,NNE,26,4.0,6.7,32,0.00,,,-99.99,FreeWX 2.04,2013-04-10 14:52:00,
2013-04-10 08:57:00,28.0,1.4,25.16,NNE,18,4.0,6.3,31,0.00,,,-99.99,FreeWX 2.04,2013-04-10 14:57:00,
2013-04-10 09:02:00,27.9,1.2,25.16,North,356,4.0,6.9,31,0.00,,,-99.99,FreeWX 2.04,2013-04-10 15:02:00,
2013-04-10 09:07:00,28.6,1.8,25.16,NNW,336,3.0,4.5,31,0.00,,,-99.99,FreeWX 2.04,2013-04-10 15:07:00,
2013-04-10 09:12:00,29.3,2.5,25.16,NNW,343,2.0,6.3,31,0.00,,,-99.99,FreeWX 2.04,2013-04-10 15:12:00,
2013-04-10 09:17:00,28.4,-0.6,25.16,North,1,4.0,7.4,28,0.00,,,-99.99,FreeWX 2.04,2013-04-10 15:17:00,
2013-04-10 09:22:00,29.7,0.7,25.13,North,1,4.0,4.9,28,0.00,,,-99.99,FreeWX 2.04,2013-04-10 15:22:00,
2013-04-10 09:27:00,29.7,0.7,25.13,North,4,3.0,7.4,28,0.00,,,-99.99,FreeWX 2.04,2013-04-10 15:27:00,
2013-04-10 09:32:00,29.5,-2.0,25.13,NNW,347,4.0,6.7,25,0.00,,,-99.99,FreeWX 2.04,2013-04-10 15:32:00,
2013-04-10 09:37:00,30.4,1.2,25.16,NW,307,4.0,4.9,28,0.00,,,-99.99,FreeWX 2.04,2013-04-10 15:37:00,
2013-04-10 09:42:00,30.9,1.8,25.16,NW,320,2.0,8.7,28,0.00,,,-99.99,FreeWX 2.04,2013-04-10 15:42:00,
2013-04-10 09:47:00,30.7,-0.9,25.16,NE,35,4.0,11.0,25,0.00,,,-99.99,FreeWX 2.04,2013-04-10 15:47:00,
2013-04-10 09:52:00,30.4,-1.1,25.13,ESE,115,5.0,7.4,25,0.00,,,-99.99,FreeWX 2.04,2013-04-10 15:52:00,
2013-04-10 09:57:00,30.6,-0.9,25.13,East,81,4.0,6.7,25,0.00,,,-99.99,FreeWX 2.04,2013-04-10 15:57:00,
2013-04-10 10:02:00,31.6,2.3,25.13,NNW,330,3.0,5.8,28,0.00,,,-99.99,FreeWX 2.04,2013-04-10 16:02:00,
2013-04-10 10:07:00,31.8,0.1,25.16,NW,312,4.0,6.9,25,0.00,,,-99.99,FreeWX 2.04,2013-04-10 16:07:00,
2013-04-10 10:12:00,32.2,0.3,25.16,NW,321,4.0,6.9,25,0.00,,,-99.99,FreeWX 2.04,2013-04-10 16:12:00,
2013-04-10 10:17:00,33.1,1.2,25.16,SE,134,3.0,9.6,25,0.00,,,-99.99,FreeWX 2.04,2013-04-10 16:17:00,
2013-04-10 10:22:00,32.9,-1.7,25.16,East,91,3.0,7.8,22,0.00,,,-99.99,FreeWX 2.04,2013-04-10 16:22:00,
2013-04-10 10:27:00,32.7,0.9,25.16,NNE,27,4.0,7.4,25,0.00,,,-99.99,FreeWX 2.04,2013-04-10 16:27:00,
2013-04-10 10:32:00,32.7,-0.9,25.16,NNW,334,4.0,7.8,23,0.00,,,-99.99,FreeWX 2.04,2013-04-10 16:32:00,
2013-04-10 10:37:00,32.5,-1.1,25.13,North,356,4.0,7.8,23,0.00,,,-99.99,FreeWX 2.04,2013-04-10 16:37:00,
2013-04-10 10:42:00,34.0,1.9,25.13,NNE,29,5.0,8.3,25,0.00,,,-99.99,FreeWX 2.04,2013-04-10 16:42:00,
2013-04-10 10:47:00,34.5,2.3,25.13,NNE,15,6.0,9.6,25,0.00,,,-99.99,FreeWX 2.04,2013-04-10 16:47:00,
2013-04-10 10:52:00,33.8,1.8,25.13,NE,49,8.0,16.3,25,0.00,,,-99.99,FreeWX 2.04,2013-04-10 16:52:00,
2013-04-10 10:57:00,33.4,-1.3,25.13,South,184,8.0,12.1,22,0.00,,,-99.99,FreeWX 2.04,2013-04-10 16:57:00,
2013-04-10 11:02:00,33.6,-1.1,25.13,SW,233,6.0,8.3,22,0.00,,,-99.99,FreeWX 2.04,2013-04-10 17:02:00,
2013-04-10 11:07:00,34.5,-0.4,25.13,North,6,4.0,11.6,22,0.00,,,-99.99,FreeWX 2.04,2013-04-10 17:07:00,
2013-04-10 11:12:00,34.2,-0.6,25.13,North,7,5.0,10.1,22,0.00,,,-99.99,FreeWX 2.04,2013-04-10 17:12:00,
2013-04-10 11:18:00,34.5,-0.4,25.13,North,4,5.0,8.3,22,0.00,,,-99.99,FreeWX 2.04,2013-04-10 17:18:00,
2013-04-10 11:23:00,34.0,-0.8,25.13,ENE,64,4.0,10.1,22,0.00,,,-99.99,FreeWX 2.04,2013-04-10 17:23:00,
2013-04-10 11:28:00,33.6,-1.1,25.13,South,184,6.0,10.5,22,0.00,,,-99.99,FreeWX 2.04,2013-04-10 17:28:00,
2013-04-10 11:33:00,35.1,0.1,25.13,South,191,5.0,6.3,22,0.00,,,-99.99,FreeWX 2.04,2013-04-10 17:33:00,
2013-04-10 11:38:00,36.9,0.7,25.13,South,180,3.0,5.4,21,0.00,,,-99.99,FreeWX 2.04,2013-04-10 17:38:00,
2013-04-10 11:43:00,36.9,-1.5,25.13,ENE,78,3.0,6.7,19,0.00,,,-99.99,FreeWX 2.04,2013-04-10 17:43:00,
2013-04-10 11:48:00,36.7,0.5,25.13,ENE,76,4.0,6.9,21,0.00,,,-99.99,FreeWX 2.04,2013-04-10 17:48:00,
2013-04-10 11:53:00,35.6,-2.6,25.13,ENE,60,5.0,9.6,19,0.00,,,-99.99,FreeWX 2.04,2013-04-10 17:53:00,
2013-04-10 11:58:00,36.3,-2.0,25.13,NE,40,6.0,10.5,19,0.00,,,-99.99,FreeWX 2.04,2013-04-10 17:58:00,
2013-04-10 12:03:00,36.7,-1.7,25.13,NE,38,5.0,9.6,19,0.00,,,-99.99,FreeWX 2.04,2013-04-10 18:03:00,
2013-04-10 12:08:00,36.3,-2.0,25.13,NNE,12,5.0,8.3,19,0.00,,,-99.99,FreeWX 2.04,2013-04-10 18:08:00,
2013-04-10 12:13:00,36.5,-1.8,25.13,NNE,18,4.0,6.7,19,0.00,,,-99.99,FreeWX 2.04,2013-04-10 18:13:00,
2013-04-10 12:18:00,37.0,-1.3,25.13,NE,39,4.0,7.8,19,0.00,,,-99.99,FreeWX 2.04,2013-04-10 18:18:00,
2013-04-10 12:23:00,36.7,-5.3,25.13,NE,41,6.0,11.6,16,0.00,,,-99.99,FreeWX 2.04,2013-04-10 18:23:00,
2013-04-10 12:28:00,37.9,-0.6,25.13,NE,47,6.0,11.0,19,0.00,,,-99.99,FreeWX 2.04,2013-04-10 18:28:00,
2013-04-10 12:33:00,37.4,-4.7,25.13,ENE,78,6.0,8.7,16,0.00,,,-99.99,FreeWX 2.04,2013-04-10 18:33:00,
2013-04-10 12:38:00,38.5,-1.3,25.10,ESE,123,5.0,8.7,18,0.00,,,-99.99,FreeWX 2.04,2013-04-10 18:38:00,
2013-04-10 12:43:00,38.1,-4.0,25.10,NE,56,5.0,9.2,16,0.00,,,-99.99,FreeWX 2.04,2013-04-10 18:43:00,
2013-04-10 12:48:00,37.2,-4.7,25.10,NNE,26,5.0,10.5,16,0.00,,,-99.99,FreeWX 2.04,2013-04-10 18:48:00,
2013-04-10 12:53:00,37.4,-4.7,25.10,NNE,22,5.0,11.0,16,0.00,,,-99.99,FreeWX 2.04,2013-04-10 18:53:00,
2013-04-10 12:58:00,37.8,-4.4,25.10,NNE,25,5.0,8.3,16,0.00,,,-99.99,FreeWX 2.04,2013-04-10 18:58:00,
2013-04-10 13:03:00,38.3,-3.8,25.10,NE,46,5.0,9.6,16,0.00,,,-99.99,FreeWX 2.04,2013-04-10 19:03:00,
2013-04-10 13:08:00,39.2,-3.1,25.10,ENE,76,5.0,7.4,16,0.00,,,-99.99,FreeWX 2.04,2013-04-10 19:08:00,
2013-04-10 13:13:00,39.6,-2.9,25.10,East,88,4.0,7.4,16,0.00,,,-99.99,FreeWX 2.04,2013-04-10 19:13:00,
2013-04-10 13:18:00,39.7,-2.7,25.10,East,92,4.0,6.7,16,0.00,,,-99.99,FreeWX 2.04,2013-04-10 19:18:00,
2013-04-10 13:23:00,39.4,-3.1,25.10,SE,124,5.0,12.1,16,0.00,,,-99.99,FreeWX 2.04,2013-04-10 19:23:00,
2013-04-10 13:28:00,40.1,-2.4,25.10,ESE,106,6.0,12.5,16,0.00,,,-99.99,FreeWX 2.04,2013-04-10 19:28:00,
2013-04-10 13:33:00,39.9,-2.6,25.10,ENE,70,6.0,10.1,16,0.00,,,-99.99,FreeWX 2.04,2013-04-10 19:33:00,
2013-04-10 13:38:00,39.6,-2.9,25.07,SE,137,6.0,13.0,16,0.00,,,-99.99,FreeWX 2.04,2013-04-10 19:38:00,
2013-04-10 13:43:00,39.2,-3.1,25.07,SSW,196,6.0,13.4,16,0.00,,,-99.99,FreeWX 2.04,2013-04-10 19:43:00,
2013-04-10 13:48:00,39.6,-2.9,25.07,SSW,201,7.0,11.2,16,0.00,,,-99.99,FreeWX 2.04,2013-04-10 19:48:00,
2013-04-10 13:53:00,41.5,-1.3,25.07,South,179,5.0,7.8,16,0.00,,,-99.99,FreeWX 2.04,2013-04-10 19:53:00,
2013-04-10 13:58:00,41.5,-1.3,25.07,ENE,67,4.0,11.6,16,0.00,,,-99.99,FreeWX 2.04,2013-04-10 19:58:00,
2013-04-10 14:03:00,40.1,-2.4,25.07,North,356,5.0,9.6,16,0.00,,,-99.99,FreeWX 2.04,2013-04-10 20:03:00,
2013-04-10 14:08:00,39.7,-2.7,25.07,NNW,335,5.0,7.8,16,0.00,,,-99.99,FreeWX 2.04,2013-04-10 20:08:00,
2013-04-10 14:13:00,40.6,-2.0,25.07,North,2,4.0,8.3,16,0.00,,,-99.99,FreeWX 2.04,2013-04-10 20:13:00,
2013-04-10 14:18:00,41.0,-1.7,25.07,ENE,63,4.0,7.8,16,0.00,,,-99.99,FreeWX 2.04,2013-04-10 20:18:00,
2013-04-10 14:23:00,41.5,-1.3,25.07,ENE,68,4.0,7.4,16,0.00,,,-99.99,FreeWX 2.04,2013-04-10 20:23:00,
2013-04-10 14:28:00,41.7,-1.1,25.07,East,93,6.0,10.5,16,0.00,,,-99.99,FreeWX 2.04,2013-04-10 20:28:00,
2013-04-10 14:33:00,42.3,-2.0,25.07,SE,138,5.0,7.4,15,0.00,,,-99.99,FreeWX 2.04,2013-04-10 20:33:00,
2013-04-10 14:38:00,42.3,-2.0,25.07,SE,133,6.0,13.0,15,0.00,,,-99.99,FreeWX 2.04,2013-04-10 20:38:00,
2013-04-10 14:43:00,42.8,-1.7,25.07,SE,139,6.0,6.7,15,0.00,,,-99.99,FreeWX 2.04,2013-04-10 20:43:00,
2013-04-10 14:48:00,43.7,-0.9,25.07,ESE,111,4.0,7.4,15,0.00,,,-99.99,FreeWX 2.04,2013-04-10 20:48:00,
2013-04-10 14:53:00,45.3,0.5,25.04,East,84,4.0,6.9,15,0.00,,,-99.99,FreeWX 2.04,2013-04-10 20:53:00,
2013-04-10 14:58:00,45.5,-4.2,25.04,SSE,153,4.0,8.3,12,0.00,,,-99.99,FreeWX 2.04,2013-04-10 20:58:00,
2013-04-10 15:03:00,45.3,-4.2,25.04,SW,218,4.0,7.4,12,0.00,,,-99.99,FreeWX 2.04,2013-04-10 21:03:00,
2013-04-10 15:08:00,44.2,-5.1,25.04,SSE,147,5.0,13.0,12,0.00,,,-99.99,FreeWX 2.04,2013-04-10 21:08:00,
2013-04-10 15:13:00,44.2,-5.1,25.04,South,179,5.0,9.2,12,0.00,,,-99.99,FreeWX 2.04,2013-04-10 21:13:00,
2013-04-10 15:18:00,44.4,-4.9,25.04,South,172,6.0,13.0,12,0.00,,,-99.99,FreeWX 2.04,2013-04-10 21:18:00,
2013-04-10 15:23:00,43.9,-5.4,25.04,South,173,7.0,12.1,12,0.00,,,-99.99,FreeWX 2.04,2013-04-10 21:23:00,
2013-04-10 15:29:00,45.1,-4.4,25.04,SSW,213,6.0,10.5,12,0.00,,,-99.99,FreeWX 2.04,2013-04-10 21:29:00,
2013-04-10 15:34:00,45.0,-4.5,25.04,SW,215,6.0,11.6,12,0.00,,,-99.99,FreeWX 2.04,2013-04-10 21:34:00,
2013-04-10 15:39:00,45.9,-3.8,25.04,SSE,163,6.0,9.2,12,0.00,,,-99.99,FreeWX 2.04,2013-04-10 21:39:00,
2013-04-10 15:44:00,46.6,-3.3,25.04,East,99,6.0,11.0,12,0.00,,,-99.99,FreeWX 2.04,2013-04-10 21:44:00,
2013-04-10 15:49:00,46.2,-3.5,25.04,East,80,6.0,11.2,12,0.00,,,-99.99,FreeWX 2.04,2013-04-10 21:49:00,
2013-04-10 15:54:00,44.4,-4.9,25.04,ENE,72,6.0,10.5,12,0.00,,,-99.99,FreeWX 2.04,2013-04-10 21:54:00,
2013-04-10 15:59:00,44.6,-4.9,25.04,NNE,20,5.0,10.5,12,0.00,,,-99.99,FreeWX 2.04,2013-04-10 21:59:00,
2013-04-10 16:04:00,44.4,-4.9,25.04,NW,317,5.0,10.1,12,0.00,,,-99.99,FreeWX 2.04,2013-04-10 22:04:00,
2013-04-10 16:09:00,46.6,-3.3,25.01,NW,310,4.0,6.9,12,0.00,,,-99.99,FreeWX 2.04,2013-04-10 22:09:00,
2013-04-10 16:14:00,46.4,-3.5,25.01,WNW,297,4.0,12.5,12,0.00,,,-99.99,FreeWX 2.04,2013-04-10 22:14:00,
2013-04-10 16:19:00,46.4,-3.5,25.01,SE,144,7.0,13.4,12,0.00,,,-99.99,FreeWX 2.04,2013-04-10 22:19:00,
2013-04-10 16:24:00,46.2,-99.9,25.01,SE,134,8.0,11.6,-999,0.00,,,-99.99,FreeWX 2.04,2013-04-10 22:24:00,
2013-04-10 16:29:00,46.9,-2.9,25.01,ESE,122,6.0,9.2,12,0.00,,,-99.99,FreeWX 2.04,2013-04-10 22:29:00,
2013-04-10 16:34:00,47.3,-2.7,25.01,ESE,106,6.0,11.6,12,0.00,,,-99.99,FreeWX 2.04,2013-04-10 22:34:00,
2013-04-10 16:39:00,46.0,-99.9,25.01,SE,130,7.0,13.0,-999,0.00,,,-99.99,FreeWX 2.04,2013-04-10 22:39:00,
2013-04-10 16:44:00,45.7,-99.9,25.01,South,183,6.0,10.1,-999,0.00,,,-99.99,FreeWX 2.04,2013-04-10 22:44:00,
2013-04-10 16:49:00,46.4,-99.9,25.01,WNW,289,4.0,6.3,-999,0.00,,,-99.99,FreeWX 2.04,2013-04-10 22:49:00,
2013-04-10 16:55:00,46.8,-99.9,25.01,WNW,300,4.0,6.9,-999,0.00,,,-99.99,FreeWX 2.04,2013-04-10 22:55:00,